User: anonymous   Login
Location: Caltech
(34.1382°N, 118.1253°W)
Time: 06:20:48
(UTC-08:00)
Language:

Cosmos 1125 Rocket - Orbit

View from above orbital plane
View from above orbital plane
View from above satellite
View from above satellite

Ground track
Ground track

The orbit data is extracted from the following two-line orbital elements,

1 11511U 79078B   14330.34361296  .00000295  00000-0  10948-3 0  9525
2 11511 074.0374 231.4474 0016219 339.6542 159.5883 14.36507760844523
Epoch (UTC): 26 November 2014 08:14:48
Eccentricity: 0.0016219
inclination: 74.0374°
perigee height: 758 km
apogee height: 781 km
right ascension of ascending node: 231.4474°
argument of perigee: 339.6542°
revolutions per day: 14.36507760
mean anomaly at epoch: 159.5883°
orbit number at epoch: 84452

The dashed part of the orbit path shows where the satellite is in the earth's shadow,  

DLR